• In Romania
  • List of Countries
  • For 7 days
  • Water Temperature
  • Satellite Maps
  • Weather Map
  • Weather Widgets
  • user-avatar
    Login

    Hourly Weather Semenovskoe

    Today, 19 April, Thursday

    Time Temperature Precipitation Wind Pressure Humidity
    00:00 +7°C° 0.2 mm 2 mps 742 mmHg 96%
    01:00 +7°C° 0.2 mm 3 mps 742 mmHg 96%
    02:00 +5°C° 0 mm 3 mps 742 mmHg 95%
    03:00 +5°C° 0.4 mm 3 mps 742 mmHg 95%
    04:00 +5°C° 0.4 mm 3 mps 742 mmHg 95%
    05:00 +5°C° 0.4 mm 3 mps 742 mmHg 95%
    06:00 +7°C° 0.4 mm 3 mps 742 mmHg 93%
    07:00 +6°C° 0.4 mm 4 mps 743 mmHg 92%
    08:00 +7°C° 0.4 mm 4 mps 743 mmHg 90%
    09:00 +7°C° 0.2 mm 4 mps 743 mmHg 88%
    10:00 +8°C° 0.2 mm 4 mps 743 mmHg 85%
    11:00 +10°C° 0.2 mm 4 mps 743 mmHg 83%
    12:00 +10°C° 0.1 mm 4 mps 743 mmHg 82%
    13:00 +9°C° 0.1 mm 5 mps 743 mmHg 80%
    14:00 +10°C° 0.1 mm 5 mps 743 mmHg 79%
    15:00 +10°C° 0 mm 5 mps 743 mmHg 76%
    16:00 +11°C° 0 mm 4 mps 744 mmHg 72%
    17:00 +11°C° 0 mm 4 mps 744 mmHg 69%
    18:00 +10°C° 0 mm 4 mps 744 mmHg 72%
    19:00 +9°C° 0 mm 3 mps 745 mmHg 75%
    20:00 +8°C° 0 mm 3 mps 745 mmHg 78%
    21:00 +7°C° 0 mm 3 mps 746 mmHg 81%
    22:00 +7°C° 0 mm 3 mps 746 mmHg 84%
    23:00 +5°C° 0 mm 3 mps 746 mmHg 87%

    Tomorrow, 20 April, Friday

    Time Temperature Precipitation Wind Pressure Humidity
    00:00 +5°C° 0 mm 3 mps 747 mmHg 89%
    01:00 +4°C° 0 mm 3 mps 747 mmHg 92%
    02:00 +4°C° 0 mm 3 mps 747 mmHg 94%
    03:00 +4°C° 0 mm 3 mps 747 mmHg 95%
    04:00 +5°C° 0 mm 2 mps 748 mmHg 95%
    05:00 +5°C° 0 mm 2 mps 748 mmHg 96%
    06:00 +4°C° 0.1 mm 3 mps 748 mmHg 93%
    07:00 +5°C° 0.1 mm 3 mps 749 mmHg 90%
    08:00 +5°C° 0.1 mm 3 mps 749 mmHg 87%
    09:00 +8°C° 0.1 mm 3 mps 749 mmHg 80%
    10:00 +9°C° 0.1 mm 2 mps 749 mmHg 74%
    11:00 +10°C° 0.1 mm 2 mps 749 mmHg 67%
    12:00 +10°C° 0.1 mm 2 mps 749 mmHg 65%
    13:00 +10°C° 0.1 mm 2 mps 749 mmHg 64%
    14:00 +12°C° 0.1 mm 2 mps 749 mmHg 63%
    15:00 +12°C° 0 mm 2 mps 748 mmHg 63%
    16:00 +12°C° 0 mm 2 mps 748 mmHg 64%
    17:00 +12°C° 0 mm 2 mps 747 mmHg 65%
    18:00 +10°C° 0 mm 2 mps 747 mmHg 71%
    19:00 +8°C° 0 mm 2 mps 747 mmHg 76%
    20:00 +7°C° 0 mm 2 mps 746 mmHg 82%
    21:00 +7°C° 0 mm 3 mps 745 mmHg 82%
    22:00 +7°C° 0 mm 3 mps 744 mmHg 82%
    23:00 +6°C° 0 mm 4 mps 743 mmHg 81%

    Day after tomorrow, 21 April, Saturday

    Time Temperature Precipitation Wind Pressure Humidity
    00:00 +7°C° 0 mm 4 mps 742 mmHg 81%
    01:00 +7°C° 0 mm 4 mps 741 mmHg 80%
    02:00 +7°C° 0 mm 5 mps 740 mmHg 80%
    03:00 +8°C° 0.1 mm 5 mps 739 mmHg 82%
    04:00 +8°C° 0.1 mm 5 mps 738 mmHg 85%
    05:00 +8°C° 0.1 mm 5 mps 737 mmHg 87%
    06:00 +8°C° 0.1 mm 5 mps 736 mmHg 86%
    07:00 +9°C° 0.1 mm 5 mps 735 mmHg 85%
    08:00 +9°C° 0.1 mm 5 mps 734 mmHg 84%
    09:00 +10°C° 0.3 mm 6 mps 733 mmHg 83%
    10:00 +10°C° 0.3 mm 6 mps 732 mmHg 82%
    11:00 +11°C° 0.3 mm 6 mps 731 mmHg 80%
    12:00 +10°C° 0.3 mm 7 mps 730 mmHg 77%
    13:00 +10°C° 0.3 mm 7 mps 730 mmHg 74%
    14:00 +10°C° 0.3 mm 8 mps 729 mmHg 71%
    15:00 +9°C° 0.1 mm 8 mps 730 mmHg 70%
    16:00 +7°C° 0.1 mm 8 mps 730 mmHg 70%
    17:00 +6°C° 0.1 mm 8 mps 730 mmHg 69%
    18:00 +5°C° 0.2 mm 8 mps 731 mmHg 71%
    19:00 +5°C° 0.2 mm 8 mps 732 mmHg 72%
    20:00 +4°C° 0.2 mm 7 mps 732 mmHg 74%
    21:00 +4°C° 0 mm 7 mps 733 mmHg 75%
    22:00 +3°C° 0 mm 7 mps 733 mmHg 76%
    23:00 +3°C° 0 mm 6 mps 734 mmHg 78%

    22 April, Sunday

    Time Temperature Precipitation Wind Pressure Humidity
    00:00 +2°C° 0 mm 6 mps 734 mmHg 78%
    01:00 +2°C° 0 mm 5 mps 735 mmHg 79%
    02:00 +1°C° 0 mm 5 mps 735 mmHg 80%
    03:00 +1°C° 0.1 mm 5 mps 736 mmHg 80%
    04:00 +1°C° 0.1 mm 5 mps 736 mmHg 80%
    05:00 +1°C° 0.1 mm 4 mps 737 mmHg 80%
    06:00 +1°C° 0 mm 4 mps 737 mmHg 77%
    07:00 +3°C° 0 mm 4 mps 737 mmHg 73%
    08:00 +3°C° 0 mm 4 mps 737 mmHg 69%
    09:00 +3°C° 0 mm 4 mps 738 mmHg 66%
    10:00 +4°C° 0 mm 4 mps 738 mmHg 63%
    11:00 +4°C° 0 mm 4 mps 738 mmHg 60%
    12:00 +5°C° 0 mm 4 mps 739 mmHg 59%
    13:00 +5°C° 0 mm 4 mps 739 mmHg 57%
    14:00 +6°C° 0 mm 4 mps 739 mmHg 55%
    15:00 +5°C° 0 mm 4 mps 739 mmHg 56%
    16:00 +5°C° 0 mm 4 mps 740 mmHg 56%
    17:00 +4°C° 0 mm 3 mps 740 mmHg 56%
    18:00 +3°C° 0 mm 3 mps 740 mmHg 61%
    19:00 +3°C° 0 mm 2 mps 741 mmHg 65%
    20:00 +2°C° 0 mm 2 mps 741 mmHg 70%
    21:00 +2°C° 0 mm 1 mps 741 mmHg 72%
    22:00 +2°C° 0 mm 1 mps 742 mmHg 73%
    23:00 +1°C° 0 mm 1 mps 742 mmHg 75%

    23 April, Monday

    Time Temperature Precipitation Wind Pressure Humidity
    00:00 +1°C° 0 mm 1 mps 742 mmHg 76%
    01:00 0°C° 0 mm 1 mps 743 mmHg 77%
    02:00 0°C° 0 mm 1 mps 743 mmHg 78%
    03:00 0°C° 0 mm 1 mps 743 mmHg 78%
    04:00 0°C° 0 mm 1 mps 744 mmHg 77%
    05:00 0°C° 0 mm 1 mps 744 mmHg 77%
    06:00 +1°C° 0 mm 1 mps 744 mmHg 66%
    07:00 +2°C° 0 mm 2 mps 744 mmHg 56%
    08:00 +4°C° 0 mm 2 mps 745 mmHg 46%
    09:00 +5°C° 0 mm 2 mps 745 mmHg 43%
    10:00 +6°C° 0 mm 2 mps 745 mmHg 40%
    11:00 +6°C° 0 mm 2 mps 745 mmHg 37%
    12:00 +7°C° 0 mm 2 mps 745 mmHg 36%
    13:00 +7°C° 0 mm 2 mps 744 mmHg 36%
    14:00 +8°C° 0 mm 2 mps 744 mmHg 35%
    15:00 +9°C° 0 mm 1 mps 744 mmHg 36%
    16:00 +8°C° 0 mm 1 mps 744 mmHg 37%
    17:00 +8°C° 0 mm 1 mps 744 mmHg 38%
    18:00 +6°C° 0 mm 1 mps 744 mmHg 45%
    19:00 +5°C° 0 mm 1 mps 744 mmHg 52%
    20:00 +3°C° 0 mm 1 mps 744 mmHg 59%
    21:00 +2°C° 0 mm 1 mps 744 mmHg 61%
    22:00 +2°C° 0 mm 1 mps 744 mmHg 64%
    23:00 +1°C° 0 mm 1 mps 744 mmHg 66%

    24 April, Tuesday

    Time Temperature Precipitation Wind Pressure Humidity
    00:00 +1°C° 0 mm 1 mps 744 mmHg 67%
    01:00 -1°C° 0 mm 2 mps 744 mmHg 68%
    02:00 -2°C° 0 mm 2 mps 744 mmHg 69%
    03:00 -1°C° 0 mm 2 mps 744 mmHg 69%
    04:00 -1°C° 0 mm 2 mps 743 mmHg 68%
    05:00 -1°C° 0 mm 2 mps 743 mmHg 68%
    06:00 +2°C° 0 mm 2 mps 743 mmHg 62%
    07:00 +3°C° 0 mm 3 mps 743 mmHg 56%
    08:00 +5°C° 0 mm 3 mps 743 mmHg 50%
    09:00 +7°C° 0 mm 3 mps 742 mmHg 47%
    10:00 +8°C° 0 mm 4 mps 742 mmHg 44%
    11:00 +10°C° 0 mm 4 mps 742 mmHg 41%
    12:00 +11°C° 0 mm 4 mps 741 mmHg 41%
    13:00 +11°C° 0 mm 4 mps 741 mmHg 41%
    14:00 +12°C° 0 mm 4 mps 740 mmHg 41%
    15:00 +11°C° 0 mm 4 mps 740 mmHg 45%
    16:00 +10°C° 0 mm 3 mps 740 mmHg 50%
    17:00 +10°C° 0 mm 3 mps 739 mmHg 54%
    18:00 +9°C° 0.1 mm 3 mps 739 mmHg 59%
    19:00 +8°C° 0.1 mm 3 mps 739 mmHg 64%
    20:00 +7°C° 0.1 mm 3 mps 739 mmHg 68%
    21:00 +5°C° 0.3 mm 3 mps 738 mmHg 70%
    22:00 +5°C° 0.3 mm 3 mps 738 mmHg 72%
    23:00 +4°C° 0.3 mm 3 mps 738 mmHg 74%
    Show more